Terminal Aerodrome Forecast
Issued by NWS Des Moines, IA

Home | Current Version | Previous Version | Text Only | Print | Product List | Glossary On
Versions: 1 2 3 4 5 6 7 8 9 10 11 12 13 14 15 16 17 18 19 20 21 22 23 24 25 26 27 28 29 30 31 32 33 34 35 36 37 38 39 40 41 42 43 44 45
238
FTUS43 KDMX 022337
TAFALO
TAF
KALO 022337Z 0300/0324 VRB02KT P6SM FEW100
     FM031500 28008KT P6SM FEW250
     FM031900 27013G20KT P6SM SCT200
     FM032300 27013KT P6SM VCSH BKN150=

USA.gov is the U.S. government's official web portal to all federal, state and local government web resources and services.